Location: Pilipovskiye Korichintsy
(49.1833°N, 27.4667°E)
Time: 00:27:19
(UTC+00:00)

Lacrosse 5 - Pass Details

Date: 30 October 2020
Orbit: 714 x 725 km, 57.0° (Epoch: 30 November)

Event Time Altitude Azimuth Distance (km) Brightness Sun altitude
Rises 19:05:09 0° 303° (WNW) 3,121 6.0 -40.9°
Reaches altitude 10° 19:07:35 10° 298° (WNW) 2,199 5.0 -41.2°
Enters shadow 19:08:13 14° 295° (WNW) 1,966 4.7 -41.3°
